Location: Poughquag
(41.6090°N, 73.6820°W)
Time: 08:44:54
(UTC-05:00)

Vanguard 1 - Pass Details

Date: 03 December 2023
Orbit: 653 x 3826 km, 34.3° (Epoch: 25 February)

Event Time Altitude Azimuth Distance (km) Brightness Sun altitude
Rises 22:33:40 0° 278° (W) 7,312 14.8 -65.5°
Reaches altitude 10° 22:38:17 10° 275° (W) 6,546 14.4 -66.1°
Enters shadow 22:48:53 36° 261° (W) 5,014 13.4 -67.3°
Maximum altitude 23:00:20 58° 204° (SSW) 4,155 - -68.5°
Drops below altitude 10° 23:19:48 10° 131° (SE) 5,855 - -69.9°
Sets 23:23:40 0° 128° (SE) 6,537 - -70.1°
